Kansas City International Airport
KMCI : now visible

Aeroporto :











RITROVATECI SU...

 
LOGIN :

Iscrizione | Disclaimer

   EN    FR    IT 

 









Sommario :    VFR   VFR Marginale   IFR   IFR Intensivo   IFR Molto Intensivo
Visibilità : 
Base nubi : 
>= 8 km
>= 3000ft
5 / 8 km
1000 / 3000 ft
1500m / 5 km
500 / 1000 ft
800 / 1500m
200 / 500 ft
< 800m
< 200 ft
Simboli :   Temporali  Nebbia  Neve Forte  Precipitazioni Forti  Vento > 20 kt






- Altitudine del aeroporto : 1026 ft
- Codice IATA : MCI


KMCI - Kansas City International

ULTIMO METAR :
  • 290053Z 20009KT 10SM CLR 04/M02 A3010 RMK AO2 SLP199 T00441017

METARs OBSOLETI :
  • 282353Z 19008KT 10SM FEW200 04/M02 A3011 RMK AO2 SLP203 T00441022 10133 20044 56010
  • 282253Z 21007KT 10SM FEW200 09/M01 A3012 RMK AO2 SLP204 T00891011

TAF KMCI
Valido dal 29 a 01 ore il 30 a 00 ore UTC


290110Z 2901/2924 20008KT P6SM BKN250
FM291400 35018G27KT P6SM FEW030 BKN150
FIR KZKC / America del Nord



MetMap, La meteo Aeronautica in un colpo d'occhio ! - Copyright ORBIFLY Dicembre 2007 - Disclaimer

ORBIFLY MET'MAP TEAM :

Programmazione e sviluppo : Alexandra Zaïnal
Concezione : Baudouin d'Aumeries
Aiuto per la programmazione : Marc-Olivier Méhu
Supporto tecnico e logistico : Manuel Goepfert
Aiuto per la traduzione : Arnaldo La Scala

Contatto : metmap@orbifly.com




FONTI E CREDITI :

   NOAA       Earth
Advisory